| time (UTC) | temp F | wind direction | speed MPH | gust MPH | rain 1hr in | rain 24hr in | rain mn in | humidity % | barometer mb |
| 20260503033033 | 31 | 298 | 0.0 | 0.0 | 0.00 | 0.00 | 0.01 | 57 | 1013.7 |
| 20260503031526 | 31 | 298 | 0.0 | 0.0 | 0.00 | 0.00 | 0.01 | 60 | 1013.7 |
| 20260503030026 | 32 | 298 | 0.0 | 0.0 | 0.00 | 0.00 | 0.01 | 63 | 1013.7 |
| 20260503024520 | 32 | 298 | 0.0 | 0.0 | 0.00 | 0.00 | 0.01 | 65 | 1013.7 |
| 20260503023015 | 33 | 298 | 0.0 | 0.0 | 0.00 | 0.00 | 0.01 | 66 | 1013.8 |
| 20260503021511 | 34 | 298 | 0.0 | 0.0 | 0.00 | 0.00 | 0.01 | 66 | 1013.9 |
| 20260503020007 | 34 | 298 | 0.0 | 0.0 | 0.00 | 0.00 | 0.01 | 66 | 1013.8 |
| 20260503014506 | 35 | 298 | 0.0 | 0.0 | 0.00 | 0.00 | 0.01 | 65 | 1013.8 |
| 20260503013100 | 36 | 298 | 0.0 | 0.0 | 0.00 | 0.00 | 0.01 | 63 | 1013.7 |
| 20260503011557 | 37 | 298 | 0.0 | 0.0 | 0.00 | 0.00 | 0.01 | 62 | 1013.7 |
| 20260503010052 | 38 | 298 | 0.0 | 0.0 | 0.00 | 0.00 | 0.01 | 60 | 1013.5 |
| 20260503004550 | 39 | 298 | 0.0 | 0.0 | 0.00 | 0.00 | 0.01 | 58 | 1013.2 |
| 20260503003043 | 39 | 298 | 0.0 | 0.0 | 0.00 | 0.00 | 0.01 | 57 | 1013.1 |
| 20260503001540 | 40 | 298 | 0.0 | 0.0 | 0.00 | 0.00 | 0.01 | 56 | 1013.0 |
| 20260503000034 | 41 | 317 | 0.0 | 0.0 | 0.00 | 0.00 | 0.01 | 55 | 1012.9 |
| 20260502234547 | 41 | 315 | 2.0 | 0.0 | 0.00 | 0.00 | 0.01 | 53 | 1012.8 |
| 20260502233029 | 42 | 269 | 1.0 | 0.0 | 0.00 | 0.00 | 0.01 | 52 | 1012.7 |
| 20260502231526 | 42 | 288 | 3.0 | 0.0 | 0.00 | 0.00 | 0.01 | 51 | 1012.7 |
| 20260502230019 | 43 | 331 | 3.0 | 0.0 | 0.00 | 0.00 | 0.01 | 51 | 1012.7 |
| 20260502224517 | 43 | 286 | 1.0 | 0.0 | 0.00 | 0.00 | 0.01 | 51 | 1012.6 |
| 20260502223013 | 43 | 294 | 2.0 | 0.0 | 0.00 | 0.00 | 0.01 | 49 | 1012.5 |
| 20260502221508 | 44 | 260 | 2.0 | 0.0 | 0.00 | 0.00 | 0.01 | 48 | 1012.4 |
| 20260502220004 | 44 | 292 | 2.0 | 0.0 | 0.00 | 0.00 | 0.01 | 47 | 1012.3 |
| 20260502214502 | 44 | 284 | 2.0 | 0.0 | 0.00 | 0.00 | 0.01 | 46 | 1012.2 |
| 20260502213106 | 45 | 302 | 2.0 | 0.0 | 0.00 | 0.00 | 0.01 | 46 | 1012.3 |
| 20260502211554 | 44 | 277 | 2.0 | 0.0 | 0.00 | 0.00 | 0.01 | 49 | 1012.2 |
| 20260502210048 | 44 | 283 | 3.0 | 0.0 | 0.00 | 0.00 | 0.01 | 48 | 1012.2 |
| 20260502203045 | 45 | 294 | 5.0 | 0.0 | 0.00 | 0.00 | 0.01 | 48 | 1012.2 |
| 20260502201639 | 46 | 254 | 5.0 | 0.0 | 0.00 | 0.00 | 0.01 | 47 | 1012.3 |
| 20260502200034 | 46 | 243 | 7.0 | 0.0 | 0.00 | 0.00 | 0.01 | 46 | 1012.4 |
| 20260502193025 | 45 | 333 | 2.0 | 0.0 | 0.00 | 0.00 | 0.01 | 47 | 1012.4 |
| 20260502191522 | 45 | 301 | 2.0 | 0.0 | 0.00 | 0.00 | 0.01 | 47 | 1012.6 |
| 20260502190016 | 45 | 302 | 3.0 | 0.0 | 0.00 | 0.00 | 0.01 | 45 | 1012.6 |
| 20260502183012 | 46 | 339 | 4.0 | 0.0 | 0.00 | 0.00 | 0.01 | 45 | 1012.7 |
| 20260502181508 | 47 | 339 | 3.0 | 0.0 | 0.00 | 0.00 | 0.01 | 44 | 1012.6 |
| 20260502163038 | 46 | 296 | 4.0 | 0.0 | 0.00 | 0.00 | 0.01 | 48 | 1012.8 |
| 20260502161533 | 45 | 268 | 4.0 | 0.0 | 0.00 | 0.00 | 0.01 | 49 | 1013.0 |
| 20260502151520 | 44 | 307 | 5.0 | 0.0 | 0.00 | 0.00 | 0.01 | 56 | 1012.9 |
| 20260502123043 | 38 | 276 | 3.0 | 0.0 | 0.00 | 0.00 | 0.01 | 11 | 1013.6 |
| 20260502121540 | 37 | 259 | 2.0 | 0.0 | 0.00 | 0.00 | 0.01 | 1 | 1013.4 |
| 20260502113019 | 36 | 273 | 2.0 | 0.0 | 0.00 | 0.00 | 0.01 | 100 | 1013.0 |
| 20260502111514 | 36 | 268 | 1.0 | 0.0 | 0.00 | 0.00 | 0.01 | 100 | 1013.2 |
| 20260502110010 | 36 | 271 | 4.0 | 0.0 | 0.00 | 0.00 | 0.01 | 100 | 1013.3 |
| 20260502103003 | 36 | 281 | 1.0 | 0.0 | 0.00 | 0.00 | 0.01 | 100 | 1012.7 |
| 20260502101611 | 37 | 277 | 2.0 | 0.0 | 0.00 | 0.00 | 0.01 | 100 | 1012.7 |
| 20260502071514 | 41 | 224 | 0.0 | 0.0 | 0.00 | 0.00 | 0.01 | 100 | 1011.7 |
| 20260502070018 | 41 | 224 | 0.0 | 0.0 | 0.00 | 0.00 | 0.01 | 100 | 1011.9 |
| 20260502064605 | 41 | 226 | 0.0 | 0.0 | 0.00 | 0.00 | 0.01 | 100 | 1012.0 |
| 20260502063003 | 41 | 226 | 0.0 | 0.0 | 0.00 | 0.00 | 0.01 | 100 | 1011.9 |
| 20260502061556 | 41 | 226 | 1.0 | 0.0 | 0.00 | 0.00 | 0.01 | 100 | 1012.1 |
| 20260502060054 | 41 | 226 | 1.0 | 0.0 | 0.00 | 0.00 | 0.01 | 100 | 1012.2 |
| 20260502054551 | 41 | 225 | 0.0 | 0.0 | 0.00 | 0.00 | 0.01 | 100 | 1012.2 |
| 20260502053044 | 40 | 225 | 1.0 | 0.0 | 0.00 | 0.00 | 0.01 | 100 | 1012.1 |
| 20260502051541 | 40 | 224 | 0.0 | 0.0 | 0.00 | 0.00 | 0.01 | 100 | 1012.4 |
| 20260502050036 | 40 | 224 | 0.0 | 0.0 | 0.00 | 0.00 | 0.01 | 100 | 1012.2 |
| 20260502044533 | 40 | 224 | 0.0 | 0.0 | 0.00 | 0.00 | 0.01 | 100 | 1012.4 |
| 20260502043031 | 40 | 225 | 0.0 | 0.0 | 0.00 | 0.00 | 0.00 | 100 | 1012.3 |
| 20260502041525 | 40 | 225 | 0.0 | 0.0 | 0.00 | 0.00 | 0.00 | 100 | 1012.3 |
| 20260502040020 | 40 | 225 | 0.0 | 0.0 | 0.00 | 0.00 | 0.00 | 100 | 1012.4 |
| 20260502034516 | 41 | 225 | 1.0 | 0.0 | 0.00 | 0.00 | 0.12 | 100 | 1012.5 |